Location: Poughquag
(41.6090°N, 73.6820°W)
Time: 03:04:36
(UTC-04:00)

Transit 2A - Pass Details

Date: 06 June 2020
Orbit: 592 x 967 km, 66.7° (Epoch: 06 July)

Event Time Altitude Azimuth Distance (km) Brightness Sun altitude
Rises 23:28:01 0° 307° (NW) 3,629 10.4 -22.6°
Reaches altitude 10° 23:33:13 10° 271° (W) 2,704 9.1 -23.0°
Maximum altitude 23:34:23 11° 260° (W) 2,665 8.9 -23.0°
Drops below altitude 10° 23:35:33 10° 250° (WSW) 2,702 8.8 -23.1°
Enters shadow 23:37:55 - 230° (SW) 2,991 8.8 -23.3°
Sets 23:40:46 0° 213° (SSW) 3,615 - -23.4°
